[[{"header":{"parameterUnit":"m.s-1","parameterCategory":1,"la1":30.2991,"la2":30.254,"lo1":-89.0895,"lo2":-89.0444,"dy":0.0017,"dx":0.0017,"nx":28,"ny":28,"refTime":"2024-06-24T09:00:00:Z","depth":0,"parameterNumber":2,"parameterNumberName":"U-component_of_WINDS"},"data":[0,0,0,0,0,0,0,0,0,0,0,0,0,0,0,0,0,0,0,0,0,0,0,0,0,0,0,0,0,0,0,0,0,0,0,0,0,0,0,0,0,0,0,0,0,0,0,0,0,0,0,0,0,0,0,0,0,0,3.5233,3.5235,0,3.5344,3.5345,3.5347,3.5293,3.5291,3.5288,3.5285,3.5398,3.5404,3.5409,0,0,0,0,0,0,0,0,0,0,0,0,0,3.4975,3.498,3.5233,3.5235,3.5236,3.5344,3.5345,3.5347,3.5294,3.529,3.5287,3.5284,3.5396,3.5403,3.541,0,0,0,0,0,0,0,0,0,0,0,0,0,3.5086,3.4981,3.5233,3.5223,3.5223,3.5344,3.5345,3.5347,3.5295,3.529,3.5286,3.5282,3.5394,3.5402,3.5411,3.5548,0,0,3.5437,3.544,0,0,0,0,0,0,0,0,3.508,3.5096,3.5223,3.5224,3.5224,3.5301,3.5296,3.5415,3.5296,3.5267,3.5285,3.528,3.5369,3.5379,3.541,3.5553,3.5558,3.5437,3.5443,3.5446,3.5449,0,0,0,0,0,0,0,3.5072,3.5091,3.5277,3.5225,3.5225,3.5212,3.5223,3.5318,3.5341,3.527,3.5266,3.528,3.5369,3.5402,3.5412,3.556,3.5437,3.5445,3.545,3.5453,3.5821,3.5826,0,0,0,0,0,0,3.5065,3.5085,3.5274,3.528,3.514,3.522,3.5233,3.528,3.534,3.5345,3.5283,3.5277,3.5389,3.5402,3.5416,3.558,3.5446,3.5454,3.5459,3.5817,3.5822,3.5827,0,0,0,0,0,0,3.506,3.5082,3.5269,3.5182,3.5204,3.5229,3.5283,3.5285,3.5317,3.535,3.5354,3.5313,3.5386,3.5404,3.5515,3.5583,3.5458,3.5466,3.5811,3.5818,3.5825,3.591,0,0,0,0,0,0,3.5053,3.5081,3.5134,3.5183,3.5209,3.5368,3.5287,3.529,3.5332,3.5325,3.5379,3.5383,3.5384,3.5503,3.5524,3.5592,3.5472,3.5805,3.5814,3.5823,3.5901,3.5919,3.5934,0,0,0,0,0,3.5044,3.5153,3.5137,3.516,3.5276,3.5372,3.5386,3.5385,3.5338,3.5391,3.5412,3.5382,3.5572,3.5515,3.5538,3.561,3.5801,3.5812,3.5822,3.5893,3.5915,3.5934,0,0,0,0,0,0,3.5111,3.516,3.5142,3.5271,3.5318,3.5362,3.5429,3.5408,3.547,3.546,3.5456,3.5469,3.5584,3.5608,3.5544,3.5746,3.5679,3.5695,3.5726,3.5747,3.5763,3.5754,3.5479,0,0,0,0,0,3.5141,3.5215,3.5253,3.5363,3.5388,3.5405,3.5446,3.5441,3.549,3.5509,3.5538,3.5586,3.5656,3.5703,3.5769,3.5904,3.5915,3.5965,3.5981,3.5995,3.6008,3.608,3.6103,3.5862,3.5862,3.5862,0,0,3.5203,3.5239,3.5286,3.5378,3.5413,3.549,3.5422,3.5506,3.5562,3.5522,3.5629,3.5652,3.5705,3.5828,3.5884,3.5852,3.6077,3.6008,3.6019,3.6025,3.6094,3.6116,3.6137,3.5869,3.5868,3.5867,0,0,3.5356,3.5391,3.5486,3.5523,3.5578,3.5588,3.5611,3.566,3.5673,3.5781,3.5752,3.5819,3.5941,3.5979,3.6015,3.6182,3.6156,3.6204,3.629,3.636,3.6379,3.6396,3.6455,3.6476,3.6217,3.6217,3.6217,0,3.5426,3.5541,3.5537,3.5624,3.5664,3.5632,3.5728,3.5764,3.5838,3.5866,3.5829,3.5981,3.6014,3.6146,3.6187,3.6217,3.6242,3.6197,3.6377,3.6394,3.6409,3.6465,3.6487,3.6223,3.6222,3.6221,3.6221,0,3.5624,3.5704,3.5774,3.5846,3.5895,3.5986,3.5996,3.6046,3.6037,3.6051,3.616,3.6199,3.6273,3.6304,3.6296,3.6435,3.6413,3.6377,3.631,3.6438,3.649,3.6512,3.623,3.6228,3.6227,3.6225,0,0,3.5823,3.5892,3.5917,3.5949,3.6007,3.6069,3.6157,3.623,3.6272,3.6324,3.6398,3.6502,3.6468,3.6508,3.6504,3.6566,3.6695,3.6522,3.6523,3.6552,3.685,3.6876,3.6901,3.6679,3.6683,3.6686,3.6845,0,3.5979,3.6135,3.6134,3.6278,3.6351,3.6321,3.6398,3.6442,3.6458,3.6521,3.6538,3.6612,3.6562,3.6586,3.6646,3.6667,3.6755,3.6655,3.6747,3.675,3.6734,3.6929,3.6957,3.7106,3.6866,3.6869,3.6872,0,3.6182,3.6241,3.6392,3.6439,3.6469,3.6539,3.6604,3.6666,3.6715,3.6722,3.6767,3.6753,3.6843,3.6774,3.6897,3.6829,3.6867,3.6882,3.6888,3.6896,3.6818,3.6942,3.7153,3.7175,3.6904,3.6902,3.6899,0,3.6311,3.6428,3.6533,3.6561,3.6618,3.6668,3.6694,3.6738,3.6781,3.6839,3.6867,3.6934,3.697,3.7023,3.7027,3.6976,3.7151,3.7082,3.7159,3.7159,3.7197,3.7194,3.7416,3.7222,3.7222,3.7221,3.7221,0,3.6485,3.6579,3.6591,3.6656,3.676,3.6758,3.686,3.6882,3.6922,3.699,3.6968,3.7032,3.7034,3.71,3.7104,3.7205,3.7222,3.723,3.7229,3.7231,3.723,3.7255,3.7245,3.7227,3.7226,3.7225,3.7224,0,3.6646,3.6659,3.6771,3.6816,3.683,3.6904,3.6942,3.7003,3.7017,3.7103,3.7123,3.7144,3.722,3.723,3.7319,3.7321,3.7443,3.7432,3.7427,3.7425,3.75,3.7493,3.7746,3.7779,3.7564,3.7566,3.7567,0,3.6757,3.6828,3.688,3.6924,3.6953,3.7024,3.7068,3.7069,3.7115,3.7176,3.723,3.7304,3.7363,3.7485,3.7508,3.7576,3.7566,3.765,3.7576,3.7576,3.7567,3.7562,3.7569,3.7665,3.7667,3.7669,3.767,0,3.6951,3.6953,3.7017,3.7084,3.7137,3.7189,3.7238,3.7275,3.7282,3.7336,3.7413,3.7459,3.7549,3.7623,3.7689,3.7715,3.7694,3.7694,3.7715,3.7717,3.771,3.7714,3.7465,3.7688,3.7686,3.7685,3.7684,3.7683,3.7089,3.7151,3.7197,3.7269,3.7306,3.7352,3.7412,3.7433,3.7498,3.7571,3.7568,3.7653,3.7699,3.7786,3.7817,3.7884,3.7856,3.7887,3.7894,3.7902,3.7909,3.7701,3.7896,3.7895,3.7895,3.7894,3.7894,0,3.7281,3.731,3.7376,3.7445,3.7502,3.7477,3.753,3.7579,3.7654,3.7699,3.7757,3.7846,3.7917,3.7945,3.8014,3.8062,3.8054,3.808,3.8076,3.8082,3.793,3.7905,3.8085,3.8085,3.8085,3.8085,3.8085,3.8085,3.7388,3.7491,3.7498,3.7619,3.7646,3.7729,3.7762,3.7804,3.784,3.794,3.7998,3.8016,3.8055,3.8126,3.819,3.8196,3.8223,3.8253,3.8255,3.8113,3.8093,3.8075,3.8051,3.8259,3.8259,3.8402,3.8403,3.8404]},{"header":{"parameterUnit":"m.s-1","parameterCategory":1,"la1":30.2991,"la2":30.254,"lo1":-89.0895,"lo2":-89.0444,"dy":0.0017,"dx":0.0017,"nx":28,"ny":28,"refTime":"2024-06-24T09:00:00:Z","depth":0,"parameterNumber":3,"parameterNumberName":"V-component_of_WINDS"},"data":[0,0,0,0,0,0,0,0,0,0,0,0,0,0,0,0,0,0,0,0,0,0,0,0,0,0,0,0,0,0,0,0,0,0,0,0,0,0,0,0,0,0,0,0,0,0,0,0,0,0,0,0,0,0,0,0,0,0,0.2826,0.2826,0,0.2849,0.285,0.285,0.2823,0.2822,0.2821,0.282,0.2847,0.2849,0.285,0,0,0,0,0,0,0,0,0,0,0,0,0,0.2759,0.276,0.2826,0.2826,0.2826,0.2849,0.285,0.285,0.2823,0.2822,0.2821,0.2819,0.2847,0.2849,0.2851,0,0,0,0,0,0,0,0,0,0,0,0,0,0.2786,0.2761,0.2826,0.2815,0.2815,0.2849,0.285,0.285,0.2823,0.2822,0.282,0.2819,0.2846,0.2848,0.2851,0.2897,0,0,0.2859,0.286,0,0,0,0,0,0,0,0,0.2784,0.2788,0.2817,0.2816,0.2815,0.2832,0.2836,0.2866,0.2824,0.282,0.282,0.2818,0.2843,0.2846,0.2854,0.2899,0.29,0.2859,0.286,0.2861,0.2862,0,0,0,0,0,0,0,0.2782,0.2787,0.2835,0.2817,0.2816,0.281,0.2813,0.2842,0.284,0.282,0.2818,0.2822,0.2843,0.2852,0.2854,0.29,0.2859,0.2861,0.2863,0.2864,0.2984,0.2986,0,0,0,0,0,0,0.2781,0.2786,0.2834,0.2836,0.2796,0.2813,0.2815,0.2828,0.284,0.284,0.2823,0.282,0.2848,0.2851,0.2855,0.2911,0.2861,0.2864,0.2865,0.2982,0.2984,0.2986,0,0,0,0,0,0,0.278,0.2786,0.2833,0.281,0.2816,0.2816,0.283,0.2829,0.2838,0.2842,0.2841,0.2832,0.2847,0.2852,0.2887,0.2911,0.2865,0.2867,0.298,0.2983,0.2985,0.3022,0,0,0,0,0,0,0.2778,0.2786,0.2803,0.2811,0.2817,0.2864,0.2832,0.2831,0.2842,0.2839,0.285,0.2851,0.2846,0.2883,0.2889,0.2914,0.2869,0.2978,0.2982,0.2984,0.3019,0.3025,0.3031,0,0,0,0,0,0.2776,0.2813,0.2804,0.281,0.2839,0.2866,0.2869,0.2863,0.2844,0.2862,0.2864,0.285,0.2907,0.2887,0.2894,0.2919,0.2977,0.2981,0.2984,0.3016,0.3024,0.3031,0,0,0,0,0,0,0.2809,0.2814,0.2804,0.2844,0.2855,0.2861,0.2883,0.2872,0.2888,0.2885,0.2876,0.2879,0.2916,0.2921,0.2899,0.2965,0.2939,0.2944,0.2961,0.2969,0.2975,0.2974,0.2871,0,0,0,0,0,0.2821,0.2842,0.2845,0.288,0.2886,0.2884,0.2895,0.2889,0.29,0.2904,0.2909,0.2921,0.2941,0.2955,0.2974,0.3019,0.3021,0.3039,0.3046,0.3051,0.3056,0.308,0.3089,0.2999,0.2999,0.2999,0,0,0.2846,0.2851,0.2865,0.2887,0.2895,0.2917,0.2888,0.2913,0.293,0.2908,0.2942,0.2945,0.2958,0.2998,0.3016,0.3003,0.3081,0.3056,0.306,0.3062,0.3085,0.3094,0.3101,0.3001,0.3001,0.3,0,0,0.2904,0.2909,0.294,0.2947,0.2958,0.2956,0.2963,0.2971,0.2972,0.3005,0.299,0.301,0.3045,0.3055,0.3064,0.3124,0.3112,0.313,0.3164,0.3188,0.3195,0.3201,0.3223,0.3231,0.3135,0.3135,0.3135,0,0.2935,0.2967,0.2957,0.2983,0.2993,0.2973,0.3004,0.3012,0.3029,0.3037,0.3022,0.3066,0.3073,0.3115,0.3129,0.3137,0.3146,0.313,0.3194,0.32,0.3206,0.3227,0.3235,0.3137,0.3137,0.3137,0.3137,0,0.3004,0.3027,0.305,0.3065,0.3078,0.3107,0.3101,0.3116,0.3108,0.3108,0.3142,0.3149,0.3169,0.3178,0.3171,0.3219,0.3211,0.3195,0.3169,0.3217,0.3237,0.3245,0.314,0.314,0.3139,0.3138,0,0,0.3085,0.3094,0.3102,0.3109,0.3119,0.3137,0.3164,0.3183,0.3195,0.3207,0.3231,0.326,0.3245,0.3256,0.325,0.327,0.3318,0.3252,0.3252,0.3265,0.3372,0.3385,0.3394,0.3309,0.3311,0.3312,0.3371,0,0.3143,0.319,0.3181,0.3227,0.3248,0.3229,0.3253,0.3262,0.3262,0.328,0.3281,0.3302,0.3281,0.3287,0.3306,0.3308,0.334,0.3304,0.3332,0.3333,0.3331,0.3405,0.3418,0.3474,0.3379,0.338,0.3381,0,0.3218,0.3232,0.3279,0.3285,0.3294,0.3315,0.3332,0.3349,0.3359,0.3357,0.3369,0.3358,0.3386,0.3358,0.3397,0.3373,0.3383,0.3386,0.3388,0.3392,0.3361,0.3411,0.3492,0.3501,0.3393,0.3392,0.3391,0,0.3274,0.3304,0.3336,0.3342,0.335,0.3366,0.337,0.3378,0.3389,0.3403,0.3411,0.3428,0.3438,0.3452,0.3447,0.3427,0.3487,0.3459,0.3488,0.3488,0.3503,0.3502,0.3587,0.3507,0.3507,0.3507,0.3507,0,0.3341,0.3371,0.3361,0.3381,0.3414,0.3404,0.3437,0.3439,0.3446,0.3467,0.3451,0.3471,0.3462,0.3482,0.3478,0.3511,0.3515,0.3515,0.3514,0.3518,0.3518,0.3526,0.3522,0.3509,0.3509,0.3508,0.3508,0,0.3409,0.3404,0.3438,0.3441,0.3443,0.3468,0.3471,0.349,0.3488,0.3514,0.352,0.3518,0.354,0.3535,0.356,0.3557,0.3598,0.3592,0.3595,0.3594,0.3623,0.3621,0.3718,0.373,0.3641,0.3642,0.3643,0,0.3453,0.3476,0.3481,0.3493,0.3498,0.3518,0.3529,0.352,0.3532,0.3544,0.3562,0.3582,0.3598,0.3634,0.3635,0.3653,0.3648,0.368,0.3651,0.3653,0.365,0.3649,0.3651,0.3687,0.3688,0.3689,0.3689,0,0.3532,0.3527,0.3544,0.3559,0.3573,0.3585,0.3595,0.3606,0.3598,0.3613,0.3634,0.3646,0.367,0.3691,0.3708,0.3712,0.37,0.3698,0.3706,0.3711,0.3712,0.3713,0.3612,0.3697,0.3696,0.3695,0.3695,0.3695,0.359,0.3609,0.3616,0.3634,0.3641,0.3651,0.3669,0.3669,0.3686,0.3704,0.3698,0.3722,0.3731,0.3752,0.3759,0.3779,0.3767,0.3778,0.3781,0.3784,0.3788,0.3707,0.3781,0.3781,0.3781,0.3781,0.3781,0,0.3668,0.3671,0.3688,0.3703,0.3718,0.3703,0.3714,0.3727,0.3749,0.3758,0.3773,0.3798,0.3817,0.3819,0.3838,0.3853,0.3848,0.3858,0.3858,0.3859,0.3797,0.3789,0.3862,0.3862,0.3862,0.3862,0.3862,0.3862,0.3711,0.3743,0.3739,0.3774,0.3777,0.38,0.3808,0.3817,0.3824,0.3852,0.3867,0.3868,0.3874,0.3893,0.391,0.391,0.3918,0.3931,0.3929,0.3872,0.3864,0.3856,0.3848,0.3933,0.3933,0.399,0.399,0.3991]}]]